Regional Weather Roundup
Issued by NWS

Home | Current Version | Previous Version | Text Only | Print | Product List | Glossary Off
Versions: 1 2 3 4 5 6 7 8 9 10 11 12 13 14 15 16 17 18 19 20 21 22 23 24 25 26 27 28 29 30 31 32 33 34 35 36 37 38 39 40 41 42 43 44 45 46 47 48 49 50

000
ASUS43 KLOT 290700
RWRIL

ILLINOIS REGIONAL WEATHER ROUNDUP
NATIONAL WEATHER SERVICE CHICAGO/ROMEOVILLE IL
200 AM CDT FRI AUG 29 2014

NOTE: "FAIR" INDICATES FEW OR NO CLOUDS BELOW 12,000 FEET WITH NO
SIGNIFICANT WEATHER AND/OR OBSTRUCTIONS TO VISIBILITY.

* THESE STATIONS ARE NOT UNDER NWS QUALITY CONTROL. THEY ALSO MAY NOT
  REPORT WEATHER SUCH AS PRECIPITATION OR FOG.

ILZ001-002-007-009-015-016-024-290800-
NORTHWEST ILLINOIS

CITY           SKY/WX    TMP DP  RH WIND       PRES   REMARKS
MOLINE         MOCLDY    70  68  93 CALM      29.94F
STERLING*      PTCLDY    66  64  94 CALM      29.97F
$$

ILZ003-004-008-010-011-017-018-290800-
NORTH CENTRAL ILLINOIS

CITY           SKY/WX    TMP DP  RH WIND       PRES   REMARKS
ROCKFORD       CLOUDY    67  65  93 SE5       29.98F FOG
$$

ILZ005-006-012>014-019>023-290800-
NORTHEAST ILLINOIS

CITY           SKY/WX    TMP DP  RH WIND       PRES   REMARKS
CHICAGO-OHARE  CLOUDY    71  64  78 S7        29.98F
CHICAGO-MIDWAY CLOUDY    73  66  78 S8        29.98F
AURORA         CLOUDY    69  65  86 SE3       29.98F FOG
WAUKEGAN       MOCLDY    70  67  90 SE5       29.98F
DUPAGE AIRPORT CLOUDY    69  66  90 S3        29.98F
WHEELING       MOCLDY    71  66  84 S6        30.00F
NORTHERLY ISL    N/A     72  64  76 SE8         N/A
$$

LMZ740>746-290800-
SOUTHERN LAKE MICHIGAN

STATION/POSITION SKY/WX   TEMP    WIND        PRES    VSBY  WAVE
                          AIR SEA DIR/SP/G                  HT/PER
                          (F)     (DEG/KT/KT) (MB)    (MI)  (FT/S)
SOUTHERN BUOY              69 69  130/ 16/ 19 1016.7F         2/ 4
WAUKEGAN HARBOR            72     160/ 11/ 13   N/A
HARRISON CRIB              73     170/ 21/ 26   N/A
BURNHAM HARBOR             72     150/  9/ 15   N/A
CALUMET HARBOR             72     150/  8/ 13 1014.7F
MICHIGAN CITY              71     120/  9/ 12   N/A
MICHIGAN CITY 6N           72 72  150/ 14/ 19   N/A           1/ 2
ST. JOSEPH                 69 70  130/  8/ 10   N/A           1
$$

ILZ025>027-034>036-040-047-049-050-058-095>099-290800-
WEST-CENTRAL ILLINOIS

CITY           SKY/WX    TMP DP  RH WIND       PRES   REMARKS
QUINCY         PTCLDY    72  68  87 SE9       29.94F
MACOMB*        PTCLDY    69  68  98 SE6       29.98F
$$

ILZ028>032-037-038-041>044-048-051>054-059>061-290800-
CENTRAL ILLINOIS

CITY           SKY/WX    TMP DP  RH WIND       PRES   REMARKS
DECATUR        CLOUDY    71  69  93 E5        29.99F
PEORIA         CLOUDY    72  68  87 SE7       29.97F
SPRINGFIELD    MOCLDY    71  69  93 SE6       29.97F
TAYLORVILLE    NOT AVBL
$$

ILZ033-039-045-046-055>057-062-063-290800-
EAST-CENTRAL ILLINOIS

CITY           SKY/WX    TMP DP  RH WIND       PRES   REMARKS
CHAMPAIGN      CLOUDY    71  69  93 CALM      30.01F
MATTOON        CLOUDY    72  69  90 CALM      30.00F
$$

ILZ079-100>102-290800-
SOUTHWEST ILLINOIS

CITY           SKY/WX    TMP DP  RH WIND       PRES   REMARKS
BELLEVILLE     MOCLDY    73  73 100 N2        29.97F
$$

ILZ064>066-069>071-074>076-080>082-084>086-088>090-092>094-290800-
SOUTH-CENTRAL ILLINOIS

CITY           SKY/WX    TMP DP  RH WIND       PRES   REMARKS
CARBONDALE     MOCLDY    71  69  93 E3        29.98F FOG
MT. VERNON     CLOUDY    73  68  83 CALM      30.00S
$$

ILZ067-068-072-073-078-083-087-091-290800-
SOUTHEAST ILLINOIS

CITY           SKY/WX    TMP DP  RH WIND       PRES   REMARKS
LAWRENCEVILLE  MOCLDY    74  72  93 CALM      30.00F
$$

ABBREVIATIONS USED IN REMARKS
   TC - TEMPERATURE IN CELSIUS
  WCI - WIND CHILL INDEX
   HX - HEAT INDEX
  VSB - VISIBILITY
$$



USA.gov is the U.S. government's official web portal to all federal, state and local government web resources and services.